Location: Pebble Beach Sunset Acres
(33.0837°N, 96.4508°W)
Time: 07:19:34
(UTC+00:00)

Meteor 1-25 Rocket - Pass Details

Date: 08 December 2021
Orbit: 838 x 890 km, 81.2° (Epoch: 18 January)

Event Time Altitude Azimuth Distance (km) Brightness Sun altitude
Rises 12:31:13 0° 196° (SSW) 3,413 7.4 -9.6°
Reaches altitude 10° 12:33:41 10° 200° (SSW) 2,473 6.7 -9.1°
Maximum altitude 12:39:12 60° 279° (W) 964 4.2 -8.0°
Drops below altitude 10° 12:44:42 10° 360° (N) 2,462 6.4 -6.9°
Sets 12:47:09 0° 4° (N) 3,396 7.1 -6.5°
